�������l�o���
Date,Time,MP-1(��Sv/h),MP-2(��Sv/h),MP-3(��Sv/h),MP-4(��Sv/h),MP-5(��Sv/h),MP-6(��Sv/h),MP-7(��Sv/h),MP-8(��Sv/h),����,����(m/s),���J
2021/01/15,00:00,0.652,0.930,0.596,1.173,0.824,0.371,0.662,0.628,�k�k��,5.2,��
2021/01/15,00:10,0.651,0.928,0.596,1.172,0.826,0.372,0.664,0.627,�k�k��,5.8,��
2021/01/15,00:20,0.652,0.930,0.596,1.171,0.825,0.371,0.664,0.628,�k�k��,5.1,��
2021/01/15,00:30,0.653,0.928,0.596,1.170,0.826,0.371,0.663,0.626,�k�k��,4.2,��
2021/01/15,00:40,0.652,0.929,0.595,1.171,0.824,0.373,0.663,0.627,�k�k��,4.4,��
2021/01/15,00:50,0.651,0.929,0.594,1.171,0.826,0.372,0.664,0.628,�k��,5.3,��
2021/01/15,01:00,0.651,0.929,0.596,1.169,0.824,0.371,0.663,0.626,�k��,6.9,��
2021/01/15,01:10,0.653,0.930,0.594,1.172,0.824,0.372,0.663,0.628,�k�k��,8.6,��
2021/01/15,01:20,0.651,0.929,0.596,1.173,0.824,0.371,0.663,0.626,�k��,11.1,��
2021/01/15,01:30,0.652,0.929,0.597,1.172,0.824,0.371,0.664,0.628,�k��,11.1,��
2021/01/15,01:40,0.652,0.930,0.596,1.171,0.826,0.371,0.665,0.628,�k��,10.3,��
2021/01/15,01:50,0.651,0.930,0.595,1.171,0.823,0.370,0.663,0.627,�k��,11.8,��
2021/01/15,02:00,0.651,0.930,0.595,1.171,0.823,0.369,0.663,0.628,�k��,13.3,��
2021/01/15,02:10,0.653,0.930,0.594,1.171,0.826,0.371,0.665,0.627,�k��,12.7,��
2021/01/15,02:20,0.652,0.928,0.593,1.173,0.824,0.371,0.665,0.626,�k��,12.4,��
2021/01/15,02:30,0.653,0.929,0.594,1.172,0.825,0.370,0.663,0.626,�k��,8.5,��
2021/01/15,02:40,0.651,0.928,0.595,1.171,0.823,0.371,0.663,0.627,�k�k��,6.6,��
2021/01/15,02:50,0.652,0.926,0.593,1.170,0.823,0.370,0.664,0.627,�k�k��,8.4,��
2021/01/15,03:00,0.654,0.928,0.596,1.173,0.824,0.372,0.663,0.628,�k�k��,8.1,��
2021/01/15,03:10,0.655,0.930,0.595,1.173,0.824,0.373,0.664,0.628,�k��,8.1,��
2021/01/15,03:20,0.652,0.930,0.595,1.170,0.826,0.373,0.663,0.626,�k�k��,7.8,��
2021/01/15,03:30,0.652,0.929,0.597,1.171,0.825,0.372,0.663,0.628,�k�k��,6.9,��
2021/01/15,03:40,0.654,0.931,0.598,1.173,0.825,0.372,0.664,0.627,�k�k��,6.7,��
2021/01/15,03:50,0.652,0.928,0.596,1.172,0.826,0.371,0.664,0.628,�k�k��,6.5,��
2021/01/15,04:00,0.653,0.929,0.597,1.173,0.824,0.370,0.664,0.626,�k�k��,5.9,��
2021/01/15,04:10,0.653,0.930,0.597,1.171,0.824,0.372,0.663,0.627,�k�k��,6.0,��
2021/01/15,04:20,0.652,0.929,0.595,1.173,0.824,0.371,0.664,0.629,�k�k��,6.3,��
2021/01/15,04:30,0.652,0.928,0.596,1.171,0.825,0.372,0.663,0.627,�k�k��,5.7,��
2021/01/15,04:40,0.653,0.929,0.595,1.171,0.824,0.372,0.664,0.627,�k,5.6,��
2021/01/15,04:50,0.652,0.930,0.595,1.172,0.823,0.372,0.664,0.627,�k,6.4,��
2021/01/15,05:00,0.652,0.927,0.596,1.172,0.822,0.372,0.663,0.626,�k,5.1,��
2021/01/15,05:10,0.650,0.929,0.595,1.172,0.823,0.370,0.663,0.627,�k,4.6,��
2021/01/15,05:20,0.650,0.928,0.596,1.174,0.823,0.371,0.662,0.628,�k,4.7,��
2021/01/15,05:30,0.650,0.928,0.595,1.171,0.821,0.372,0.663,0.626,�k,5.8,��
2021/01/15,05:40,0.652,0.929,0.595,1.171,0.823,0.371,0.662,0.626,�k,4.6,��
2021/01/15,05:50,0.650,0.928,0.595,1.171,0.821,0.372,0.663,0.627,�k,4.0,��
2021/01/15,06:00,0.650,0.927,0.596,1.172,0.821,0.372,0.662,0.626,�k,3.6,��
2021/01/15,06:10,0.649,0.928,0.594,1.171,0.825,0.372,0.663,0.626,�k,3.9,��
2021/01/15,06:20,0.650,0.926,0.595,1.172,0.824,0.372,0.663,0.626,�k,3.6,��
2021/01/15,06:30,0.650,0.926,0.596,1.174,0.821,0.370,0.662,0.628,�k,3.2,��
2021/01/15,06:40,0.652,0.927,0.594,1.172,0.822,0.371,0.661,0.628,�k,3.4,��
2021/01/15,06:50,0.648,0.927,0.594,1.172,0.821,0.371,0.663,0.627,�k,3.6,��
2021/01/15,07:00,0.651,0.926,0.595,1.171,0.823,0.371,0.662,0.626,�k,4.5,��
2021/01/15,07:10,0.648,0.929,0.595,1.170,0.824,0.370,0.663,0.627,�k,4.9,��
2021/01/15,07:20,0.649,0.928,0.594,1.170,0.822,0.371,0.662,0.626,�k,5.1,��
2021/01/15,07:30,0.649,0.929,0.597,1.171,0.822,0.371,0.662,0.627,�k,5.4,��
2021/01/15,07:40,0.652,0.929,0.594,1.172,0.823,0.370,0.663,0.627,�k,5.4,��
2021/01/15,07:50,0.650,0.929,0.595,1.169,0.821,0.371,0.662,0.628,�k�k��,5.0,��
2021/01/15,08:00,0.649,0.927,0.595,1.170,0.821,0.370,0.663,0.626,�k�k��,4.7,��
2021/01/15,08:10,0.652,0.926,0.595,1.172,0.823,0.370,0.661,0.627,�k,4.9,��
2021/01/15,08:20,0.647,0.927,0.595,1.172,0.822,0.372,0.663,0.626,�k,4.4,��
2021/01/15,08:30,0.646,0.928,0.595,1.173,0.823,0.371,0.665,0.626,�k�k��,4.5,��
2021/01/15,08:40,0.644,0.926,0.596,1.172,0.822,0.370,0.663,0.627,�k�k��,4.1,��
2021/01/15,08:50,0.644,0.927,0.595,1.173,0.823,0.371,0.663,0.627,�k�k��,3.4,��
2021/01/15,09:00,0.647,0.927,0.594,1.172,0.823,0.373,0.664,0.628,�k�k��,4.4,��
2021/01/15,09:10,0.647,0.926,0.595,1.171,0.822,0.370,0.663,0.628,�k�k��,3.4,��
2021/01/15,09:20,0.646,0.927,0.596,1.173,0.824,0.370,0.664,0.627,�k�k��,3.0,��
2021/01/15,09:30,0.648,0.925,0.598,1.171,0.823,0.370,0.666,0.627,�k,2.6,��
2021/01/15,09:40,0.646,0.927,0.596,1.171,0.823,0.372,0.665,0.627,�k�k��,2.5,��
2021/01/15,09:50,0.648,0.926,0.597,1.172,0.825,0.372,0.666,0.628,�k,2.0,��
2021/01/15,10:00,0.648,0.925,0.597,1.171,0.824,0.373,0.664,0.628,�k,2.3,��
2021/01/15,10:10,0.647,0.927,0.595,1.174,0.824,0.372,0.664,0.628,�k��,2.3,��
2021/01/15,10:20,0.647,0.927,0.597,1.171,0.824,0.372,0.663,0.628,�k��,2.3,��
2021/01/15,10:30,0.644,0.926,0.596,1.174,0.826,0.372,0.661,0.627,�k�k��,2.3,��
2021/01/15,10:40,0.648,0.927,0.598,1.174,0.826,0.371,0.662,0.625,�k�k��,3.2,��
2021/01/15,10:50,0.647,0.930,0.596,1.172,0.825,0.372,0.662,0.627,�k�k��,2.9,��
2021/01/15,11:00,0.646,0.926,0.596,1.172,0.829,0.373,0.663,0.629,�k�k��,3.1,��
2021/01/15,11:10,0.653,0.926,0.597,1.173,0.827,0.372,0.663,0.629,�k��,3.5,��
2021/01/15,11:20,0.655,0.925,0.596,1.172,0.825,0.371,0.662,0.629,�k�k��,3.2,��
2021/01/15,11:30,0.655,0.928,0.599,1.172,0.825,0.372,0.663,0.628,�k��,2.3,��
2021/01/15,11:40,0.653,0.928,0.597,1.171,0.827,0.372,0.663,0.628,���k��,2.5,��
2021/01/15,11:50,0.655,0.930,0.597,1.174,0.828,0.372,0.662,0.629,�k��,3.1,��
2021/01/15,12:00,0.653,0.927,0.598,1.173,0.827,0.371,0.663,0.629,�k�k��,2.9,��
2021/01/15,12:10,0.655,0.930,0.598,1.175,0.826,0.374,0.663,0.626,�k�k��,2.8,��
2021/01/15,12:20,0.653,0.931,0.597,1.172,0.827,0.372,0.662,0.628,�k�k��,2.8,��
2021/01/15,12:30,0.654,0.928,0.598,1.173,0.828,0.373,0.665,0.628,���쓌,1.9,��
2021/01/15,12:40,0.656,0.930,0.597,1.173,0.826,0.372,0.665,0.628,���쓌,2.3,��
2021/01/15,12:50,0.658,0.929,0.597,1.173,0.828,0.372,0.665,0.628,���쓌,2.3,��
2021/01/15,13:00,0.655,0.929,0.598,1.175,0.826,0.372,0.665,0.629,���쓌,3.1,��
2021/01/15,13:10,0.657,0.929,0.601,1.172,0.829,0.372,0.665,0.628,�쓌,3.2,��
2021/01/15,13:20,0.656,0.930,0.598,1.173,0.827,0.373,0.666,0.629,���쓌,2.9,��
2021/01/15,13:30,0.655,0.931,0.597,1.173,0.828,0.372,0.665,0.628,�쓌,2.9,��
2021/01/15,13:40,0.656,0.930,0.599,1.173,0.828,0.371,0.666,0.626,�쓌,2.9,��
2021/01/15,13:50,0.655,0.928,0.598,1.174,0.829,0.374,0.665,0.626,�쓌,3.6,��
2021/01/15,14:00,0.656,0.930,0.599,1.174,0.829,0.373,0.665,0.625,���쓌,3.8,��
2021/01/15,14:10,0.656,0.931,0.601,1.176,0.827,0.373,0.666,0.627,�쓌,4.1,��
2021/01/15,14:20,0.655,0.932,0.600,1.172,0.829,0.373,0.667,0.625,�쓌,5.0,��
2021/01/15,14:30,0.655,0.931,0.598,1.174,0.828,0.374,0.664,0.624,�쓌,3.5,��
2021/01/15,14:40,0.657,0.931,0.598,1.174,0.830,0.374,0.666,0.630,�쓌,3.9,��
2021/01/15,14:50,0.657,0.935,0.600,1.175,0.831,0.374,0.666,0.628,�쓌,4.3,��
2021/01/15,15:00,0.657,0.933,0.600,1.174,0.830,0.374,0.665,0.628,���쓌,3.7,��
2021/01/15,15:10,0.654,0.935,0.599,1.173,0.831,0.374,0.666,0.626,���쓌,3.4,��
2021/01/15,15:20,0.653,0.933,0.599,1.175,0.831,0.372,0.665,0.629,�쓌,3.0,��
2021/01/15,15:30,0.655,0.934,0.602,1.173,0.828,0.374,0.665,0.627,�쓌,2.8,��
2021/01/15,15:40,0.657,0.934,0.600,1.175,0.829,0.372,0.665,0.627,���쓌,3.4,��
2021/01/15,15:50,0.654,0.933,0.600,1.176,0.830,0.374,0.665,0.628,�쓌,3.4,��
2021/01/15,16:00,0.655,0.934,0.600,1.176,0.829,0.374,0.664,0.629,�쓌,3.7,��
2021/01/15,16:10,0.653,0.936,0.599,1.176,0.832,0.375,0.666,0.627,�쓌,2.5,��
2021/01/15,16:20,0.655,0.937,0.599,1.175,0.830,0.374,0.665,0.628,���쓌,2.3,��
2021/01/15,16:30,0.658,0.937,0.601,1.175,0.828,0.373,0.666,0.629,���쓌,2.6,��
2021/01/15,16:40,0.655,0.936,0.600,1.174,0.829,0.375,0.664,0.627,�쓌,1.7,�L
2021/01/15,16:50,0.655,0.937,0.598,1.175,0.830,0.374,0.665,0.628,�쓌,3.1,�L
2021/01/15,17:00,0.656,0.937,0.601,1.178,0.831,0.373,0.665,0.628,�쓌,2.5,�L
2021/01/15,17:10,0.655,0.938,0.599,1.175,0.829,0.373,0.665,0.628,�쓌,1.4,�L
2021/01/15,17:20,0.657,0.938,0.600,1.175,0.831,0.374,0.666,0.627,�쓌,1.5,��
2021/01/15,17:30,0.654,0.937,0.600,1.176,0.831,0.374,0.665,0.628,�쓌,2.3,��
2021/01/15,17:40,0.655,0.937,0.600,1.173,0.829,0.373,0.666,0.628,�쓌,2.0,�L
2021/01/15,17:50,0.654,0.937,0.602,1.176,0.830,0.374,0.664,0.628,���쓌,0.6,��
2021/01/15,18:00,0.654,0.935,0.600,1.175,0.830,0.374,0.666,0.628,��쐼,1.7,��
2021/01/15,18:10,0.655,0.935,0.599,1.175,0.829,0.374,0.664,0.629,��쐼,2.0,��
2021/01/15,18:20,0.655,0.938,0.601,1.174,0.833,0.374,0.664,0.628,��쐼,1.7,��
2021/01/15,18:30,0.656,0.937,0.600,1.175,0.831,0.374,0.664,0.627,�쐼,1.5,��
2021/01/15,18:40,0.655,0.938,0.601,1.175,0.831,0.373,0.665,0.628,��쐼,1.7,��
2021/01/15,18:50,0.656,0.937,0.601,1.175,0.832,0.373,0.666,0.629,�쐼,2.5,��
2021/01/15,19:00,0.655,0.934,0.600,1.175,0.831,0.374,0.665,0.628,��쐼,1.7,��
2021/01/15,19:10,0.656,0.938,0.601,1.177,0.830,0.375,0.665,0.630,�쐼,1.5,��
2021/01/15,19:20,0.655,0.936,0.599,1.175,0.828,0.374,0.666,0.627,��쐼,1.7,�L
2021/01/15,19:30,0.656,0.938,0.599,1.175,0.829,0.375,0.665,0.629,��쐼,1.9,�L
2021/01/15,19:40,0.656,0.935,0.600,1.177,0.831,0.374,0.665,0.628,�쐼,1.7,�L
2021/01/15,19:50,0.656,0.935,0.601,1.176,0.831,0.375,0.667,0.629,�쐼,2.0,��
2021/01/15,20:00,0.658,0.937,0.601,1.176,0.832,0.375,0.666,0.628,���쐼,2.0,�L
2021/01/15,20:10,0.656,0.935,0.601,1.175,0.832,0.375,0.666,0.628,���쐼,2.3,��
2021/01/15,20:20,0.655,0.936,0.600,1.176,0.832,0.374,0.666,0.628,���쐼,1.5,��
2021/01/15,20:30,0.655,0.936,0.599,1.174,0.831,0.375,0.666,0.627,��,1.2,��
2021/01/15,20:40,0.656,0.936,0.600,1.176,0.831,0.374,0.667,0.627,���k��,0.9,�L
2021/01/15,20:50,0.656,0.935,0.601,1.177,0.833,0.375,0.666,0.628,��,0.9,�L
2021/01/15,21:00,0.655,0.934,0.599,1.177,0.831,0.373,0.666,0.628,��,0.9,�L
2021/01/15,21:10,0.655,0.935,0.599,1.174,0.829,0.375,0.666,0.630,���k��,1.1,��
2021/01/15,21:20,0.656,0.935,0.600,1.177,0.831,0.374,0.668,0.630,�k��,0.6,�L
2021/01/15,21:30,0.657,0.937,0.600,1.175,0.833,0.375,0.666,0.628,-,CALM,��
2021/01/15,21:40,0.656,0.938,0.600,1.175,0.831,0.374,0.666,0.629,���k��,0.8,�L
2021/01/15,21:50,0.654,0.934,0.600,1.176,0.831,0.375,0.666,0.628,�k��,1.1,�L
2021/01/15,22:00,0.659,0.936,0.601,1.173,0.832,0.374,0.665,0.628,�k��,1.5,�L
2021/01/15,22:10,0.657,0.935,0.600,1.177,0.833,0.375,0.665,0.628,���k��,0.8,�L
2021/01/15,22:20,0.656,0.936,0.599,1.176,0.829,0.375,0.667,0.629,���k��,0.6,�L
2021/01/15,22:30,0.655,0.937,0.600,1.177,0.831,0.375,0.666,0.629,�k��,0.6,��
2021/01/15,22:40,0.657,0.937,0.600,1.176,0.834,0.375,0.667,0.629,�k��,1.4,��
2021/01/15,22:50,0.656,0.937,0.600,1.177,0.830,0.375,0.667,0.628,�k��,1.9,��
2021/01/15,23:00,0.656,0.935,0.601,1.178,0.833,0.376,0.666,0.629,�k��,1.7,��
2021/01/15,23:10,0.656,0.936,0.602,1.176,0.833,0.375,0.665,0.628,�k��,0.9,�L
2021/01/15,23:20,0.657,0.936,0.602,1.177,0.831,0.375,0.665,0.629,�k��,1.2,��
2021/01/15,23:30,0.657,0.935,0.599,1.177,0.831,0.376,0.664,0.629,�k�k��,1.1,��
2021/01/15,23:40,0.656,0.938,0.602,1.177,0.833,0.375,0.666,0.629,�k��,0.6,��
2021/01/15,23:50,0.655,0.935,0.601,1.178,0.833,0.375,0.665,0.628,�k,0.6,��
